Weather History for McCall, ID

Change the Weather History Date:

Tuesday, June 3, 2014

  Actual Average Record
Temperature  
Mean Temperature 58 °F 50 °F  
Max Temperature 72 °F 64 °F 85 °F (1986)
Min Temperature 44 °F 36 °F 28 °F (1951)
Degree Days  
Heating Degree Days 7 15  
Month to date heating degree days 28 46  
Since 1 June heating degree days 28 46  
Since 1 July heating degree days 8302 9275  
Cooling Degree Days 0 0  
Month to date cooling degree days 0 0  
Year to date cooling degree days 0 0  
Since 1 June cooling degree days 0 0  
Growing Degree Days 8 (Base 50)    
Moisture  
Dew Point 38 °F    
Average Humidity 54    
Maximum Humidity 86    
Minimum Humidity 22    
Precipitation  
Precipitation 0.21 in 0.08 in 1.18 in (1948)
Month to date precipitation 0.21 0.25  
Year to date precipitation 14.59 10.03  
Sea Level Pressure  
Sea Level Pressure 29.82 in    
Wind  
Wind Speed 5 mph (NNW)    
Max Wind Speed 20 mph    
Max Gust Speed 27 mph    
Visibility 10 miles    
Events Rain    
T = Trace of Precipitation, MM = Missing Value Source: NWS Daily Summary

Daily Weather History Graph

Daily Weather History Graph

Search for Another Location

Airport:

Trip Planner

Search our weather history database for the weather conditions in past years. The results will help you decide how hot, cold, wet, or windy it might be!

Date:

Astronomy

Jun. 03, 2014 Rise Set
Actual Time 6:00 AM MDT 9:25 PM MDT
Civil Twilight 5:23 AM MDT 10:01 PM MDT
Nautical Twilight 4:36 AM MDT 10:49 PM MDT
Astronomical Twilight 3:35 AM MDT 11:50 PM MDT
Moon 11:37 AM MDT (6/3) 12:46 AM MDT (6/3)
Length of Visible Light 16h 37m
Length of Day
15h 25m
Waxing Crescent, 30% of the Moon is Illuminated
Jun 3
Waxing Crescent
Jun 5
First Quarter
Jun 12
Full
Jun 19
Last Quarter
Jun 27
New

Hourly Weather History & Observations

Time (MDT) Temp. Dew Point Humidity Pressure Visibility Wind Dir Wind Speed Gust Speed Precip Events Conditions
12:51 AM 57.9 °F 37.9 °F 47% 29.78 in 10.0 mi North 6.9 mph - 0.00 in   Overcast
1:51 AM 55.0 °F 39.9 °F 57% 29.77 in 10.0 mi NW 5.8 mph - N/A   Mostly Cloudy
2:51 AM 54.0 °F 39.9 °F 59% 29.75 in 10.0 mi Variable 3.5 mph - N/A   Scattered Clouds
3:51 AM 53.1 °F 39.9 °F 61% 29.74 in 10.0 mi North 8.1 mph - N/A   Clear
4:51 AM 52.0 °F 39.9 °F 63% 29.75 in 10.0 mi North 5.8 mph - N/A   Clear
5:51 AM 48.0 °F 39.0 °F 71% 29.77 in 10.0 mi Calm Calm - N/A   Clear
6:51 AM 45.0 °F 39.0 °F 80% 29.81 in 10.0 mi Calm Calm - N/A   Clear
7:51 AM 52.0 °F 41.0 °F 66% 29.80 in 10.0 mi Calm Calm - N/A   Clear
8:51 AM 55.0 °F 39.9 °F 57% 29.82 in 10.0 mi Calm Calm - N/A   Clear
9:51 AM 60.1 °F 39.0 °F 46% 29.82 in 10.0 mi Calm Calm - N/A   Clear
10:51 AM 64.0 °F 34.0 °F 33% 29.81 in 10.0 mi South 5.8 mph - N/A   Clear
11:51 AM 66.9 °F 30.0 °F 25% 29.82 in 10.0 mi Variable 6.9 mph 17.3 mph N/A   Clear
12:51 PM 70.0 °F 28.9 °F 22% 29.82 in 10.0 mi North - - N/A   Clear
1:51 PM 69.1 °F 32.0 °F 25% 29.82 in 10.0 mi West 8.1 mph - N/A   Mostly Cloudy
2:51 PM 70.0 °F 33.1 °F 26% 29.82 in 10.0 mi Variable 5.8 mph - N/A   Mostly Cloudy
3:51 PM 68.0 °F 32.0 °F 26% 29.83 in 10.0 mi WNW 20.7 mph 27.6 mph N/A   Mostly Cloudy
4:05 PM 66.9 °F 35.1 °F 31% 29.93 in 10.0 mi NNW 13.8 mph 20.7 mph N/A   Mostly Cloudy
4:51 PM 66.0 °F 35.1 °F 32% 29.84 in 10.0 mi NNE 10.4 mph - N/A   Partly Cloudy
5:51 PM 66.0 °F 36.0 °F 33% 29.85 in 10.0 mi North 4.6 mph - N/A   Scattered Clouds
6:51 PM 66.0 °F 36.0 °F 33% 29.85 in 10.0 mi West 3.5 mph - N/A   Scattered Clouds
7:51 PM 66.0 °F 36.0 °F 33% 29.82 in 10.0 mi WNW 5.8 mph - 0.01 in   Mostly Cloudy
8:51 PM 51.1 °F 45.0 °F 80% 29.88 in 10.0 mi NNE 8.1 mph - 0.20 in Rain Light Rain
9:51 PM 54.0 °F 44.1 °F 69% 29.88 in 10.0 mi NE 12.7 mph - 0.00 in Rain Light Rain
10:51 PM 53.1 °F 44.1 °F 71% 29.89 in 10.0 mi North 3.5 mph - 0.00 in   Mostly Cloudy
11:51 PM 48.9 °F 44.1 °F 83% 29.91 in 10.0 mi Calm Calm - N/A   Clear